Stations météo

Publicité
Marseille/Marignane, France (7650): Température de l'air & dewpoint: 17.04.2019 04:00:00 - 23.04.2019 04:00:00 (CEST)Marseille/Marignane, France (7650): Température de l'air 5cm: 17.04.2019 04:00:00 - 23.04.2019 04:00:00 (CEST)Marseille/Marignane, France (7650): Température de l'air -20cm & Température de l'air -100cm: 17.04.2019 04:00:00 - 23.04.2019 04:00:00 (CEST)Marseille/Marignane, France (7650): Vitesse du vent & gusts: 17.04.2019 04:00:00 - 23.04.2019 04:00:00 (CEST)Marseille/Marignane, France (7650): Direction du vent: 17.04.2019 04:00:00 - 23.04.2019 04:00:00 (CEST)Marseille/Marignane, France (7650): reduced air pressure: 17.04.2019 04:00:00 - 23.04.2019 04:00:00 (CEST)Marseille/Marignane, France (7650): visibility: 17.04.2019 04:00:00 - 23.04.2019 04:00:00 (CEST)Marseille/Marignane, France (7650): Ensoleillement: 17.04.2019 04:00:00 - 23.04.2019 04:00:00 (CEST)Marseille/Marignane, France (7650): Quantités de précipitations: 17.04.2019 04:00:00 - 23.04.2019 04:00:00 (CEST)
Date & Time tt [°C] td [°C] tt 5cm [°C] tt -20cm [°C] tt -100cm [°C] ff [km/h] ff [knt] fx [km/h] fx [knt] dd ppp [hPa] vv [km] sd [min] rr [mm]
23.04.2019 04:00:00 16,4 7,9 15,0 14,7 13,7 27 14 58 32 E 997,6 60 0 0,0
23.04.2019 03:00:00 17,3 7,6 15,3 14,8 13,6 41 22 69 37 E 998,0 60 0 0,0
23.04.2019 02:00:00 18,2 7,6 17,7 14,8 13,6 35 19 59 32 E 998,4 60 0 0,0
23.04.2019 01:00:00 18,9 6,4 17,5 14,9 13,6 32 17 63 34 E 999,2 60 0 0,0
23.04.2019 00:00:00 18,4 6,6 17,2 15,0 13,7 23 13 51 28 E 999,8 54 0 0,0
22.04.2019 23:00:00 18,3 7,1 17,5 15,1 13,7 30 16 68 37 E 1000,1 45 0 0,0
22.04.2019 22:00:00 19,3 6,1 18,1 15,1 13,6 39 21 70 38 E 1000,0 38 0 0,0
22.04.2019 21:00:00 19,0 6,5 15,0 15,2 13,7 32 17 84 45 ENE 999,4 33 0 0,0
22.04.2019 20:00:00 19,0 7,1 16,8 15,2 13,6 40 22 80 43 E 999,4 17 0 0,0
22.04.2019 19:00:00 20,9 4,4 20,1 15,2 13,6 37 20 64 35 E 999,5 31 0 0,0
22.04.2019 18:00:00 22,6 2,6 21,8 15,2 13,6 31 17 76 41 ENE 999,3 20 0 0,0
22.04.2019 17:00:00 23,8 1,4 23,2 15,1 13,6 51 28 82 45 E 999,6 19 0 0,0
22.04.2019 16:00:00 24,3 3,0 23,4 14,9 13,6 40 22 62 33 E 1000,1 20 0 0,0
22.04.2019 15:00:00 25,0 2,4 24,9 14,6 13,6 34 19 58 31 E 1000,6 20 24 0,0
22.04.2019 14:00:00 26,4 3,0 27,2 14,3 13,6 34 18 54 29 E 1000,9 18 48 0,0
22.04.2019 13:00:00 25,9 1,9 24,3 14,1 13,6 32 17 71 38 E 1001,6 19 22 0,0
22.04.2019 12:00:00 25,4 2,1 25,2 14,0 13,6 32 18 56 30 E 1002,2 18 49 0,0
22.04.2019 11:00:00 24,3 2,4 21,0 13,8 13,6 21 11 45 24 E 1002,9 20 19 0,0
22.04.2019 10:00:00 21,5 4,5 15,9 13,8 13,6 13 7 21 11 NNE 1003,2 20 44 0,0
22.04.2019 09:00:00 16,7 9,6 11,6 13,9 13,6 10 6 28 15 NE 1003,6 17 22 0,0
22.04.2019 08:00:00 13,5 8,8 10,9 14,0 13,6 8 4 22 12 SSE 1004,0 34 0 0,0
22.04.2019 07:00:00 15,0 7,8 11,5 14,0 13,6 18 10 23 12 N 1004,3 41 0 0,0
22.04.2019 06:00:00 16,7 5,9 10,8 14,1 13,6 14 8 21 12 ENE 1004,9 46 0 0,0
22.04.2019 05:00:00 16,6 5,2 10,7 14,2 13,6 6 4 18 10 SE 1005,8 45 0 0,0
22.04.2019 04:00:00 16,4 6,2 13,1 14,3 13,6 11 6 33 18 ESE 1006,5 40 0 0,0
22.04.2019 03:00:00 16,6 6,1 10,1 14,4 13,6 13 7 29 16 E 1007,3 42 0 0,0
22.04.2019 02:00:00 15,5 5,7 10,4 14,5 13,6 3 2 21 12 SW 1008,7 47 0 0,0
22.04.2019 01:00:00 15,3 7,1 11,6 14,6 13,6 18 10 23 12 NW 1009,4 43 0 0,0
22.04.2019 00:00:00 16,8 4,8 12,3 14,7 13,6 12 7 19 11 NNE 1010,3 51 0 0,0
21.04.2019 23:00:00 17,1 4,1 10,9 14,8 13,6 13 7 22 12 NE 1010,9 51 0 0,0
21.04.2019 22:00:00 18,1 3,2 10,8 14,8 13,6 10 5 17 9 N 1011,4 52 0 0,0
21.04.2019 21:00:00 18,9 4,3 14,2 14,8 13,6 11 6 32 17 NE 1011,4 50 6 0,0
21.04.2019 20:00:00 19,5 4,0 15,1 14,8 13,6 12 6 21 12 NNE 1011,5 39 40 0,0
21.04.2019 19:00:00 19,8 4,7 15,9 14,8 13,5 13 7 31 17 NNE 1012,0 48 0 0,0
21.04.2019 18:00:00 18,0 11,3 16,5 14,7 13,6 9 5 15 8 SSW 1012,8 28 0 0,0
21.04.2019 17:00:00 18,6 9,9 17,0 14,6 13,5 3 2 19 10 S 1013,2 34 0 0,0
21.04.2019 16:00:00 17,8 12,3 17,6 14,5 13,5 15 8 22 12 W 1013,6 20 0 0,0
21.04.2019 15:00:00 17,8 11,6 13,7 14,5 13,5 17 9 26 14 W 1014,4 20 0 0,0
21.04.2019 14:00:00 18,3 7,7 13,2 14,4 13,5 6 3 95 51 ESE 1015,1 42 0 0,2
21.04.2019 13:00:00 21,1 4,2 19,8 14,4 13,5 17 9 39 21 E 1015,1 44 0 0,0
21.04.2019 12:00:00 20,6 3,8 17,3 14,4 13,5 25 14 58 32 E 1015,9 46 0 0,0
21.04.2019 11:00:00 19,9 5,9 17,5 14,4 13,5 12 7 29 15 ENE 1016,0 29 0 0,0
21.04.2019 10:00:00 19,0 5,1 14,7 14,4 13,5 19 11 38 20 NE 1016,1 53 0 0,0
21.04.2019 09:00:00 17,7 6,2 14,2 14,4 13,5 13 7 20 11 NNE 1016,3 52 0 0,0
21.04.2019 08:00:00 17,2 6,1 12,0 14,5 13,5 7 4 15 8 NNE 1016,4 51 0 0,0
21.04.2019 07:00:00 16,8 6,3 12,3 14,6 13,5 2 1 12 7 ESE 1016,6 48 0 0,0
21.04.2019 06:00:00 16,5 6,6 14,4 14,6 13,5 8 4 26 14 ENE 1016,9 45 0 0,0
21.04.2019 05:00:00 17,0 5,6 12,4 14,7 13,5 13 7 22 12 ENE 1017,5 51 0 0,0
21.04.2019 04:00:00 17,5 6,4 13,3 14,8 13,5 15 8 22 12 N 1017,5 40 0 0,0
21.04.2019 03:00:00 17,4 5,3 15,0 14,9 13,5 15 8 28 15 E 1018,5 53 0 0,0
21.04.2019 02:00:00 18,3 5,2 13,2 15,0 13,5 25 14 42 23 NNE 1018,9 45 0 0,0
21.04.2019 01:00:00 17,9 6,1 12,9 15,1 13,5 9 5 23 12 NE 1020,6 41 0 0,0
21.04.2019 00:00:00 18,7 4,1 15,4 15,2 13,5 19 10 31 17 ENE 1020,6 52 0 0,0
20.04.2019 23:00:00 18,0 3,8 13,8 15,3 13,5 9 5 15 8 NE 1020,7 49 0 0,0
20.04.2019 22:00:00 18,8 3,0 15,9 15,3 13,5 9 5 27 14 NE 1020,7 53 0 0,0
20.04.2019 21:00:00 19,4 2,3 17,3 15,4 13,5 17 9 35 19 ENE 1020,6 57 0 0,0
20.04.2019 20:00:00 20,3 2,1 18,7 15,5 13,5 22 12 37 20 ENE 1020,6 56 0 0,0
20.04.2019 19:00:00 21,0 1,3 19,6 15,4 13,5 16 9 38 21 ENE 1020,6 47 0 0,0
20.04.2019 18:00:00 21,4 1,6 20,7 15,3 13,5 26 14 51 27 E 1020,9 42 0 0,0
20.04.2019 17:00:00 22,0 2,6 21,6 15,1 13,5 30 16 45 24 E 1021,0 45 0 0,0
20.04.2019 16:00:00 22,8 4,3 23,1 14,8 13,5 20 11 34 18 ESE 1021,6 43 24 0,0
20.04.2019 15:00:00 23,5 5,4 24,5 14,3 13,5 18 10 37 20 ENE 1021,9 20 27 0,0
20.04.2019 14:00:00 23,5 4,9 25,9 13,9 13,5 23 12 41 22 ENE 1022,4 19 60 0,0
20.04.2019 13:00:00 23,1 4,1 23,5 13,6 13,5 20 11 39 21 E 1023,2 19 60 0,0
20.04.2019 12:00:00 21,8 3,9 23,5 13,4 13,5 29 16 47 26 E 1023,8 19 60 0,0
20.04.2019 11:00:00 21,4 4,9 21,2 13,4 13,5 28 15 45 25 E 1024,1 18 60 0,0
20.04.2019 10:00:00 19,9 4,4 14,3 13,4 13,5 16 9 31 17 E 1024,4 19 60 0,0
20.04.2019 09:00:00 16,6 6,1 9,0 13,5 13,5 4 2 13 7 NE 1024,7 18 60 0,0
20.04.2019 08:00:00 12,6 4,8 5,2 13,7 13,5 7 4 19 10 NE 1024,9 20 49 0,0
20.04.2019 07:00:00 10,0 4,1 4,8 13,9 13,5 8 4 11 6 SSE 1024,6 24 0 0,0
20.04.2019 06:00:00 11,7 3,9 5,9 14,1 13,5 5 3 13 7 SW 1024,4 33 0 0,0
20.04.2019 05:00:00 10,9 5,0 7,0 14,2 13,5 10 5 13 7 SE 1024,9 41 0 0,0
20.04.2019 04:00:00 14,9 4,0 8,0 14,4 13,5 3 2 7 4 NE 1025,0 42 0 0,0
20.04.2019 03:00:00 15,2 4,3 7,5 14,6 13,5 5 3 10 5 ENE 1025,3 49 0 0,0
20.04.2019 02:00:00 12,2 5,4 7,0 14,7 13,5 6 4 12 7 SE 1025,8 41 0 0,0
20.04.2019 01:00:00 13,6 4,7 7,0 15,0 13,5 4 2 9 5 SE 1026,2 41 0 0,0
20.04.2019 00:00:00 13,9 4,7 7,3 15,2 13,5 2 1 8 4 SSW 1026,6 29 0 0,0
19.04.2019 23:00:00 16,4 3,8 8,2 15,3 13,5 3 2 7 4 SSW 1026,8 44 0 0,0
19.04.2019 22:00:00 17,3 3,2 9,5 15,4 13,4 3 1 17 9 SE 1026,6 57 0 0,0
19.04.2019 21:00:00 18,5 3,1 14,3 15,5 13,4 12 6 30 16 E 1026,0 51 4 0,0
19.04.2019 20:00:00 21,0 2,3 18,8 15,5 13,4 19 10 36 20 E 1025,2 59 60 0,0
19.04.2019 19:00:00 21,3 5,2 19,4 15,4 13,4 15 8 29 16 SE 1024,7 44 60 0,0
19.04.2019 18:00:00 22,5 5,8 22,4 15,2 13,4 18 10 33 18 SSE 1024,6 49 60 0,0
19.04.2019 17:00:00 24,2 1,7 24,9 15,0 13,4 19 10 45 24 E 1024,3 20 60 0,0
19.04.2019 16:00:00 24,2 1,7 25,7 14,6 13,4 30 16 48 26 ESE 1024,6 38 60 0,0
19.04.2019 15:00:00 24,4 2,5 26,4 14,2 13,4 31 17 45 25 ESE 1024,9 39 60 0,0
19.04.2019 14:00:00 24,2 4,5 25,8 13,8 13,4 25 14 42 23 E 1025,1 35 60 0,0
19.04.2019 13:00:00 23,0 4,5 21,4 13,6 13,4 25 13 44 24 E 1025,4 19 11 0,0
19.04.2019 12:00:00 23,6 5,0 23,0 13,4 13,4 21 12 59 32 ESE 1025,4 17 57 0,0
19.04.2019 11:00:00 21,5 5,8 19,2 13,4 13,5 26 14 40 22 E 1025,3 18 31 0,0
19.04.2019 10:00:00 19,5 5,2 17,7 13,3 13,5 23 13 41 22 ENE 1024,9 39 31 0,0
19.04.2019 09:00:00 18,6 5,4 11,5 13,4 13,4 18 10 27 15 ENE 1024,5 39 50 0,0
19.04.2019 08:00:00 15,3 7,1 8,9 13,4 13,4 8 4 16 9 ENE 1024,3 31 23 0,0
19.04.2019 07:00:00 13,0 8,1 8,7 13,5 13,4 5 3 13 7 SSE 1023,7 20 0 0,0
19.04.2019 06:00:00 13,2 8,1 9,0 13,6 13,4 6 3 14 8 SSE 1023,3 23 0 0,0
19.04.2019 05:00:00 13,3 8,1 9,2 13,7 13,4 8 4 17 9 S 1023,0 20 0 0,0
19.04.2019 04:00:00 13,2 7,0 8,6 13,8 13,4 4 2 14 7 W 1022,8 20 0 0,0
19.04.2019 03:00:00 12,0 5,8 7,1 14,0 13,4 5 3 9 5 S 1022,5 20 0 0,0
19.04.2019 02:00:00 11,7 4,4 7,5 14,2 13,4 5 3 9 5 SSW 1022,4 26 0 0,0
19.04.2019 01:00:00 11,8 3,8 7,5 14,3 13,4 8 4 12 7 SSE 1022,2 28 0 0,0
19.04.2019 00:00:00 12,0 3,2 7,1 14,5 13,4 13 7 19 10 SE 1022,1 30 0 0,0
18.04.2019 23:00:00 14,9 5,1 7,2 14,6 13,4 5 3 12 7 NNW 1022,0 34 0 0,0
18.04.2019 22:00:00 17,4 -0,8 8,0 14,7 13,4 4 2 7 4 W 1021,6 26 0 0,0
18.04.2019 21:00:00 18,6 -3,0 11,4 14,7 13,4 8 4 45 25 E 1020,9 55 3 0,0
18.04.2019 20:00:00 20,6 -3,9 16,2 14,7 13,4 30 16 45 24 E 1020,2 55 45 0,0
18.04.2019 19:00:00 20,7 4,7 18,2 14,7 13,4 17 9 36 19 SE 1019,7 31 60 0,0
18.04.2019 18:00:00 21,2 4,7 19,6 14,5 13,4 14 8 36 19 S 1019,5 20 50 0,0
18.04.2019 17:00:00 20,6 8,9 20,8 14,3 13,4 24 13 47 26 S 1019,4 20 60 0,0
18.04.2019 16:00:00 20,9 9,8 21,8 14,1 13,4 32 17 48 26 SSE 1019,8 20 60 0,0
18.04.2019 15:00:00 21,2 10,1 21,5 13,8 13,4 30 16 45 24 S 1020,0 18 46 0,0
18.04.2019 14:00:00 21,3 9,2 22,8 13,4 13,3 16 8 42 23 SW 1020,4 37 60 0,0
18.04.2019 13:00:00 20,0 7,4 21,9 13,1 13,4 18 10 25 14 W 1020,6 19 60 0,0
18.04.2019 12:00:00 19,4 5,1 20,4 12,9 13,4 11 6 15 8 WNW 1020,9 19 60 0,0
18.04.2019 11:00:00 17,3 8,7 15,6 12,9 13,4 9 5 12 7 W 1021,3 20 60 0,0
18.04.2019 10:00:00 15,3 8,3 12,9 12,9 13,4 7 4 11 6 W 1021,4 19 54 0,0
18.04.2019 09:00:00 14,2 7,5 9,1 13,0 13,4 3 2 10 5 N 1021,2 18 35 0,0
18.04.2019 08:00:00 10,9 6,8 6,2 13,2 13,4 8 4 11 6 SSE 1021,0 19 44 0,0
18.04.2019 07:00:00 9,2 6,1 5,0 13,3 13,4 9 5 10 6 SE 1020,3 33 0 0,0
18.04.2019 06:00:00 11,0 5,7 5,2 13,4 13,4 2 1 8 4 N 1020,0 34 0 0,0
18.04.2019 05:00:00 11,1 6,4 6,8 13,6 13,4 4 2 12 7 SSE 1020,2 30 0 0,0
18.04.2019 04:00:00 10,5 7,6 6,3 13,7 13,4 6 3 8 5 SE 1020,5 18 0 0,0
18.04.2019 03:00:00 10,1 8,0 6,6 13,9 13,4 6 3 11 6 ESE 1020,9 17 0 0,0
18.04.2019 02:00:00 11,3 9,2 7,2 14,1 13,4 3 1 10 5 E 1021,6 15 0 0,0
18.04.2019 01:00:00 12,0 9,0 8,8 14,2 13,4 9 5 14 7 E 1021,6 17 0 0,0
18.04.2019 00:00:00 12,0 9,4 8,4 14,3 13,4 9 5 11 6 E 1021,4 20 0 0,0
17.04.2019 23:00:00 12,6 9,6 9,0 14,4 13,4 4 2 10 6 SE 1021,4 29 0 0,0
17.04.2019 22:00:00 13,2 10,2 10,5 14,5 13,4 4 2 14 8 S 1021,2 35 0 0,0
17.04.2019 21:00:00 13,7 10,1 11,8 14,5 13,4 10 6 21 11 S 1020,4 38 0 0,0
17.04.2019 20:00:00 14,2 10,0 12,8 14,5 13,4 10 5 26 14 S 1019,8 49 1 0,0
17.04.2019 19:00:00 15,4 9,1 14,6 14,5 13,4 12 7 29 16 S 1019,1 57 0 0,0
17.04.2019 18:00:00 16,1 9,0 16,1 14,3 13,4 18 10 37 20 S 1019,3 46 14 0,0
17.04.2019 17:00:00 16,9 8,3 19,1 14,0 13,4 21 12 37 20 S 1019,5 30 57 0,0
17.04.2019 16:00:00 16,9 8,3 20,1 13,7 13,3 26 14 38 21 S 1020,0 29 60 0,0
17.04.2019 15:00:00 17,7 9,1 21,8 13,4 13,4 25 13 39 21 S 1020,2 20 60 0,0
17.04.2019 14:00:00 18,0 8,0 21,8 13,0 13,4 24 13 47 26 S 1020,5 19 60 0,0
17.04.2019 13:00:00 17,9 9,5 21,8 12,7 13,4 24 13 38 21 S 1020,9 36 60 0,0
17.04.2019 12:00:00 18,4 7,5 21,3 12,6 13,4 15 8 28 15 S 1020,7 19 60 0,0
17.04.2019 11:00:00 17,7 6,5 16,3 12,5 13,4 10 6 14 8 W 1020,7 19 60 0,0
17.04.2019 10:00:00 15,9 9,3 13,1 12,5 13,4 6 3 16 9 WNW 1020,6 11 60 0,0
17.04.2019 09:00:00 13,9 7,4 8,4 12,6 13,4 3 1 8 4 NW 1020,6 20 60 0,0
17.04.2019 08:00:00 10,0 7,1 5,2 12,8 13,4 5 3 11 6 SSE 1020,4 19 36 0,0
17.04.2019 07:00:00 8,1 5,6 4,8 12,9 13,4 8 4 15 8 ESE 1020,1 19 0 0,0
17.04.2019 06:00:00 9,2 6,5 4,3 13,1 13,4 3 2 11 6 SE 1020,2 15 0 0,0
17.04.2019 05:00:00 7,4 5,4 4,6 13,3 13,4 5 3 11 6 SE 1020,5 13 0 0,0
17.04.2019 04:00:00 7,1 5,4 5,3 13,5 13,4 10 5 14 8 SE 1020,6 16 0 0,0

tt = Température de l'air
td = dewpoint
tt 5cm = Température de l'air 5cm
tt -20cm = Température de l'air -20cm
tt -100cm = Température de l'air -100cm
ff = Vitesse du vent
fx = gusts
dd = Direction du vent
ppp = reduced air pressure
vv = visibility
sd = Ensoleillement
rr = Quantités de précipitations

stations d'obs. à proximité